EW7504 Weather Reports


time (UTC)temp
C
wind
direction
speed
KPH
gust
KPH
rain 1hr
cm
rain 24hr
cm
rain mn
cm
humidity
%
barometer
mb
20260901174816 30 152 8.0 8.0 0.00 0.00 0.00 44 1021.7
20260901173305 30 152 0.0 8.0 0.00 0.00 0.00 43 1021.9
20260901171839 28 151 3.2 8.0 0.00 0.00 0.00 45 1021.7
20260901170319 28 151 1.6 11.3 0.00 0.00 0.00 47 1021.8
20260901164822 27 150 1.6 6.4 0.00 0.00 0.00 51 1021.8
20260901163305 27 150 3.2 4.8 0.00 0.00 0.00 52 1021.8
20260901161804 26 111 0.0 8.0 0.00 0.00 0.00 54 1021.6
20260901160305 26 134 1.6 6.4 0.00 0.00 0.00 55 1021.8
20260901154828 26 145 3.2 11.3 0.00 0.00 0.00 57 1021.7
20260901153041 25 147 4.8 8.0 0.00 0.00 0.00 58 1021.6
20260901151823 25 158 3.2 8.0 0.00 0.00 0.00 60 1021.7
20260901150310 24 159 6.4 6.4 0.00 0.00 0.00 62 1021.9
20260901144817 23 159 0.0 6.4 0.00 0.00 0.00 64 1021.8
20260901143324 23 157 1.6 6.4 0.00 0.00 0.00 66 1021.7
20260901141807 22 160 3.2 6.4 0.00 0.00 0.00 68 1021.6
20260901140314 21 160 1.6 6.4 0.00 0.00 0.00 71 1021.5
20260901134813 21 160 0.0 4.8 0.00 0.00 0.00 72 1021.5
20260901133309 20 154 0.0 3.2 0.00 0.00 0.00 72 1021.2
20260901131803 20 154 3.2 3.2 0.00 0.00 0.00 71 1021.1
20260901130331 20 154 0.0 4.8 0.00 0.00 0.00 71 1021.2
20260901124807 20 154 3.2 8.0 0.00 0.00 0.00 71 1020.7
20260901123309 20 154 3.2 9.7 0.00 0.00 0.00 72 1020.6
20260901121546 20 154 3.2 6.4 0.00 0.00 0.00 72 1020.6
20260901120306 20 154 1.6 8.0 0.00 0.00 0.00 73 1020.5
20260901114808 20 154 1.6 6.4 0.00 0.00 0.00 73 1020.5
20260901113327 20 154 3.2 4.8 0.00 0.00 0.00 74 1020.7
20260901111544 20 154 0.0 3.2 0.00 0.00 0.00 74 1020.4
20260901110329 20 154 0.0 0.0 0.00 0.00 0.00 73 1020.5
20260901104816 20 153 1.6 1.6 0.00 0.00 0.00 73 1020.3
20260901103322 21 154 1.6 1.6 0.00 0.00 0.00 72 1020.3
20260901101807 21 154 0.0 1.6 0.00 0.00 0.00 71 1020.2
20260901100343 21 154 3.2 6.4 0.00 0.00 0.00 71 1020.1
20260901094827 21 154 4.8 9.7 0.00 0.00 0.00 71 1020.0
20260901093311 21 154 6.4 6.4 0.00 0.00 0.00 71 1020.1
20260901091832 21 154 1.6 4.8 0.00 0.00 0.00 71 1020.3
20260901090312 21 154 4.8 6.4 0.00 0.00 0.00 70 1020.3
20260901084816 22 154 4.8 8.0 0.00 0.00 0.00 69 1020.2
20260901083307 22 154 6.4 12.9 0.00 0.00 0.00 69 1020.1
20260901081806 22 154 3.2 9.7 0.00 0.00 0.00 70 1020.4
20260901080308 21 154 3.2 8.0 0.00 0.00 0.00 71 1020.4
20260901074833 21 154 0.0 4.8 0.00 0.00 0.00 71 1020.4
20260901073304 21 154 1.6 6.4 0.00 0.00 0.00 71 1020.4
20260901071809 21 154 6.4 8.0 0.00 0.00 0.00 73 1020.5
20260901070318 21 154 1.6 4.8 0.00 0.00 0.00 74 1020.5
20260901064805 21 154 0.0 1.6 0.00 0.00 2.21 73 1020.7
20260901063311 21 154 0.0 1.6 0.00 0.00 2.21 73 1020.6
20260901061808 21 154 0.0 0.0 0.00 0.00 2.21 71 1020.8
20260901060316 22 154 0.0 0.0 0.00 0.00 2.21 71 1020.9
20260901054809 22 154 0.0 0.0 0.00 0.00 2.21 70 1020.5
20260901053315 22 153 0.0 0.0 0.00 0.00 2.21 69 1020.4
20260901051816 23 153 0.0 0.0 0.00 0.00 2.21 66 1020.6
20260901050303 23 153 0.0 1.6 0.00 0.00 2.21 65 1020.7
20260901044804 23 152 0.0 8.0 0.00 0.00 2.21 64 1020.7
20260901043313 23 152 8.0 9.7 0.00 0.00 2.21 65 1020.6
20260901041801 23 152 3.2 8.0 0.00 0.00 2.21 65 1020.7
20260901040333 23 152 4.8 6.4 0.00 0.00 2.21 65 1020.7
20260901034838 24 151 1.6 6.4 0.00 0.00 2.21 64 1020.5
20260901033316 24 144 1.6 9.7 0.00 0.00 2.21 64 1020.4
20260901031821 24 142 3.2 6.4 0.00 0.00 2.21 63 1020.4
20260901030321 25 142 4.8 11.3 0.00 0.00 2.21 62 1019.9
20260901024810 25 142 1.6 9.7 0.00 0.00 2.21 62 1019.8
20260901023343 24 142 1.6 8.0 0.00 0.00 2.21 63 1019.6
20260901021806 24 143 0.0 4.8 0.00 0.00 2.21 65 1019.5
20260901020316 24 144 0.0 1.6 0.00 0.00 2.21 64 1019.3
20260901014804 25 143 0.0 3.2 0.00 0.00 2.21 63 1019.0
20260901013324 25 140 0.0 3.2 0.00 0.00 2.21 63 1018.8
20260901011806 25 98 0.0 4.8 0.00 0.00 2.21 62 1018.6
20260901010309 25 141 0.0 1.6 0.00 0.00 2.21 62 1019.0
20260901004819 25 141 0.0 0.0 0.00 0.00 2.21 59 1018.5
20260901003324 25 137 0.0 3.2 0.00 0.00 2.21 59 1018.6
20260901001809 26 140 0.0 4.8 0.00 0.00 2.21 59 1018.7
20260901000314 26 149 1.6 6.4 0.00 0.00 2.21 58 1018.7
20260831234821 26 153 1.6 12.9 0.00 0.00 2.21 59 1019.0
20260831233317 26 152 3.2 14.5 0.00 0.00 2.21 60 1018.9
20260831231822 26 152 0.0 9.7 0.00 0.00 2.21 59 1018.9
20260831230329 26 141 0.0 0.0 0.00 0.00 2.21 60 1018.9
20260831224808 25 87 0.0 0.0 0.00 0.00 2.21 61 1019.4
20260831223330 23 121 0.0 1.6 0.00 0.00 2.21 62 1019.6
20260831221532 23 88 0.0 3.2 0.03 0.00 2.21 61 1019.7
20260831220315 23 142 0.0 4.8 0.03 0.00 2.21 62 1020.1
20260831214820 22 125 4.8 9.7 0.05 0.00 2.21 69 1020.5
20260831213320 21 131 9.7 16.1 0.05 0.00 2.18 71 1020.6
20260831211808 20 89 11.3 16.1 0.08 0.00 2.18 72 1020.9
20260831210030 20 44 8.0 16.1 0.15 0.00 2.16 73 1021.3
20260831204808 20 101 4.8 17.7 0.00 0.00 2.16 73 1022.2
20260831203313 20 102 1.6 14.5 0.00 0.00 2.06 74 1022.9
20260831201814 20 102 1.6 11.3 0.00 0.00 2.06 75 1023.0
20260831200324 20 102 4.8 11.3 0.00 0.00 1.88 75 1023.6
20260831194823 20 101 8.0 11.3 0.30 1.96 1.88 75 1024.0
20260831193334 20 18 6.4 6.4 0.41 1.88 1.73 76 1024.0
20260831191842 20 289 1.6 4.8 1.32 1.85 1.73 76 1024.4
20260831190312 20 289 1.6 9.7 1.19 1.73 1.55 75 1024.1
20260831184540 20 342 4.8 20.9 1.12 1.65 0.53 75 1024.0
20260831183311 20 316 11.3 22.5 1.02 1.55 0.53 72 1024.1
20260831181818 21 305 22.5 30.6 0.10 0.64 0.53 68 1023.8
20260831180302 21 259 6.4 22.5 0.00 0.53 0.53 66 1023.5